Weather in Redding

United States     40°35′06″N   122°23′33″W
temp.,
°C
wind,
m/s
gust,
m/s
humid.,
%
clouds,
%
prec.,
mm/h
press.,
hPa
HPBL,
m
18 september, sat
sat1823:00+19s12440 0.0 101234
02:00+16nnw11622 0.0 101315
05:00+14nne117136 0.0 101312
08:00+14se12725 0.0 1014206
11:00+20sse345580 0.0 1014995
14:00+16nw2388100 3.1 1015217
17:00+16ne128775 4.7 1014134
20:00+13w119734 0.1 101414
19 september, sun
sun1923:00+13w119436 0.1 101513
02:00+12wnw21841 0.0 101615
05:00+11nnw128137 0.0 101714
08:00+13ne1178100 0.0 101852
11:00+19ne2251100 0.0 1019841
14:00+24ene133076 0.0 10172330
17:00+26ene13245 0.0 10152522
20:00+19wnw3336100 0.0 101648
20 september, mon
mon2023:00+16nnw344386 0.0 101765
02:00+14nnw355134 0.0 101885
05:00+13nnw35490 0.0 101792
08:00+15nnw36360 0.0 1017144
11:00+26n58140 0.0 10171266
14:00+31nne6790 0.0 10141610
17:00+33n5880 0.0 10121609
20:00+23nw44170 0.0 101354
21 september, tue
tue2123:00+20nw22240 0.0 101537
02:00+18nnw22270 0.0 101624
05:00+17nw22280 0.0 101719
08:00+19nnw11250 0.0 101833
11:00+30e12120 0.0 1018679
14:00+35sse2290 0.0 10161229
17:00+34sse2290 0.0 10141533
20:00+25wnw221890 0.0 101515
22 september, wed
wed2223:00+21nnw22230 0.0 101716
02:00+19nw21290 0.0 101718
05:00+18nw213498 0.0 101817
08:00+20nnw11323 0.0 101929
11:00+30ese11171 0.0 1018700
14:00+34se33125 0.0 10151553
17:00+34sse3312100 0.0 10121901
20:00+25wnw32220 0.0 101325